カタログに戻る

SL-8 DEB

運用中LEO
NORAD 5052·DEBRIS·🇷🇺 Russia

打ち上げ Mar 18, 1971 から Plesetsk Cosmodrome

Loading…

次のパス

TLE

Source: Space-Track
1 05052U 71020C   26218.88233052 -.00000049  00000-0  33721-4 0  9996
2 05052  65.8221   6.3920 0007410 237.8729 200.5490 13.73651029776173

AllMySatでSL-8 DEBをリアルタイム追跡

Download on the App Store